Regional Weather Roundup
Issued by NWS

Home | Current Version | Previous Version | Graphics & Text | Print | Product List | Glossary On
Versions: 1 2 3 4 5 6 7 8 9 10 11 12 13 14 15 16 17 18 19 20 21 22 23 24 25 26 27 28 29 30 31 32 33 34 35 36 37 38 39 40 41 42 43 44 45 46 47 48 49 50
000
ASUS45 KTFX 170910
RWRMT
MONTANA REGIONAL WEATHER ROUNDUP
NATIONAL WEATHER SERVICE GREAT FALLS MT
200 AM MST TUE JAN 17 2017

NOTE: "FAIR" INDICATES FEW OR NO CLOUDS BELOW 12000 FEET WITH NO
SIGNIFICANT WEATHER AND/OR OBSTRUCTIONS TO VISIBILITY.

MTZ001>007-043-171000-
WEST OF THE DIVIDE

CITY           SKY/WX    TMP DP  RH WIND       PRES   REMARKS
KALISPELL      CLOUDY    12   9  87 CALM      30.15F FOG
MISSOULA       PTCLDY    -2  -4  91 CALM      30.21F
BUTTE          CLOUDY    -1  -6  79 SE5       30.09F
MULLAN PASS    CLEAR     22  16  78 S12       29.99F WCI  10
ANACONDA         N/A      9   1  72 CALM      30.09F
DEER LODGE       N/A      3  -2  78 CALM      30.14F
EUREKA           N/A     18  12  79 S10       30.10F WCI   6
HAMILTON         N/A      3   0  85 CALM      30.17F
PLAINS           N/A     -3 -11  69 CALM      30.19F
RONAN            N/A     -4 -11  72 MISG      30.14F
THOMPSON FALLS   N/A      7   2  80 E10       30.19F WCI  -7
$$

MTZ008-052>055-171000-
SOUTHWEST MONTANA

CITY           SKY/WX    TMP DP  RH WIND       PRES   REMARKS
BOZEMAN        CLOUDY     4  -2  76 CALM      30.10F
DILLON         CLOUDY    19   3  49 SW12      30.10F WCI   7
W YELLOWSTONE  CLOUDY   -13 -20  70 CALM      30.19S
ENNIS          CLEAR     18   9  68 SE7       30.14S WCI   8
$$

MTZ009-010-012-014-046-048-049-054-171000-
EAST SLOPES AND CENTRAL MONTANA

CITY           SKY/WX    TMP DP  RH WIND       PRES   REMARKS
CUT BANK       CLOUDY    40  21  46 W35G52    29.74F
GREAT FALLS    CLOUDY    32  17  54 SW24      29.87F WCI  19
MALMSTROM AFB  CLOUDY    33  22  63 SW30      29.87F WCI  20
HELENA         CLOUDY     8   1  73 CALM      30.11S
AUGUSTA          N/A     40  15  36 W16G32    29.84F
BOWMANS CRNR     N/A     26  13  59 S26G33    29.88S WCI  10
CHOTEAU          N/A     41  19  42 SW10G17   29.83F
CONRAD           N/A     28  19  69 CALM      29.83F
FAIRFIELD        N/A     30  17  59 S18       29.83F WCI  18
POWER            N/A     31  18  57 S21       29.84F WCI  18
RAYNESFORD       N/A     39  18  43 W10G22    29.88S
ULM              N/A     37  15  41 MISG      29.89F
$$

MTZ011-013-016-021-045-047-050-051-171000-
NORTH CENTRAL MONTANA

CITY           SKY/WX    TMP DP  RH WIND       PRES   REMARKS
HAVRE          CLOUDY    32  22  66 SW23      29.79F WCI  19
LEWISTOWN      CLOUDY    24  12  60 SE6       29.86F WCI  17
N BAR RANCH      N/A     30  14  51 W6        29.87F WCI  24
CHINOOK          N/A     12   9  85 E5        29.80F
DENTON           N/A     25  17  72 S17       29.82F WCI  11
FORT BENTON      N/A     39  21  48 MISG      29.86S
GEYSER           N/A     37  20  50 W25       29.84S WCI  26
GRASS RANGE      N/A     35  17  47 SW13      29.81F WCI  26
JUDITH GAP       N/A     30  16  55 SW20      29.87F WCI  17
ROY              N/A     40  18  40 MISG      29.82F
STANFORD         N/A     39  22  50 CALM      29.85S
WINIFRED         N/A     36  21  54 W13       29.83S WCI  27
$$

MTZ017>020-022>027-061-062-171000-
NORTHEAST MONTANA

CITY           SKY/WX    TMP DP  RH WIND       PRES   REMARKS
GLASGOW        CLOUDY    10   5  80 SE9       29.85F WCI  -3
JORDAN           N/A     16   9  74 CALM      29.88F
SIDNEY         CLOUDY     9   4  80 S15       29.95F WCI  -8
WOLF POINT     CLOUDY    -5 -11  75 CALM      29.91F
PLENTYWOOD       N/A     10   7  85 SE9       29.86F WCI  -2
POPLAR           N/A     10   7  85 CALM      29.91F
SCOBEY           N/A     14   2  59 SE3       29.82F
$$

MTZ028>42-056>058-171000-
SOUTHCENTRAL AND SOUTHEAST MONTANA

CITY           SKY/WX    TMP DP  RH WIND       PRES   REMARKS
BAKER          CLOUDY     5  -1  76 CALM      29.96F
BILLINGS       CLOUDY    23   9  55 SW23      29.94F WCI   7
LIVINGSTON     CLOUDY    32  14  47 W29G39    29.99F WCI  18
MILES CITY     CLOUDY    10   3  73 S8        29.96F WCI  -2
BIG TIMBER     CLEAR     34  14  44 W33G41    29.94F WCI  19
EKALAKA          N/A     30   8  39 SW7       29.93  WCI  23
FORSYTH          N/A      7   3  85 CALM      29.94F
HARLOWTON        N/A     33  13  44 W35G41    29.89F WCI  18
LAUREL           N/A     24   9  53 SW14      29.94F WCI  12
$$

REGIONAL REPORTS...DAKOTAS

CITY           SKY/WX    TMP DP  RH WIND       PRES   REMARKS
WILLISTON      CLOUDY     7   5  91 SW6       29.94F WCI  -3
MINOT          CLOUDY    17  12  80 S8        29.94F WCI   7
DICKINSON      CLOUDY    15   6  67 SW7       29.94F WCI   5
BEACH            N/A     14   7  73 S7        29.96F WCI   4
CROSBY           N/A     12   9  85 S21G26    29.89F WCI  -6
TIOGA            N/A     12  10  92 S8        29.93F WCI   1
WATFORD CITY     N/A      5   0  78 CALM      29.95F
BISMARCK       CLOUDY     8   4  83 CALM      30.02F
GRAND FORKS    CLOUDY     0  -4  83 SW6       29.99F WCI -12
FARGO          CLOUDY     4   0  83 S6        30.01F WCI  -7
BUFFALO SD       N/A     20   9  62 W5        29.90F
RAPID CITY     CLOUDY    13   6  74 CALM      30.02F
$$

REGIONAL REPORTS...WYOMING/IDAHO/WASHINGTON

CITY           SKY/WX    TMP DP  RH WIND       PRES   REMARKS
GILLETTE       CLOUDY    16   7  67 S6        29.98F WCI   7
SHERIDAN       CLOUDY     6  -1  73 VRB5      29.96F
BUFFALO WY     CLOUDY    26   3  37 NW5       29.95F
CODY           CLOUDY     8   2  76 N3        30.01S
YELLOWSTONE LA   N/A    -10 -14  82 CALM      30.16S
IDAHO FALLS    CLOUDY    -7 -10  87 N8        30.29F WCI -23
SALMON         CLOUDY   -15 -18  84 CALM      30.41F
SPOKANE        CLOUDY    14  11  87 CALM      30.12F
$$

REGIONAL REPORTS...ALBERTA

CITY           SKY/WX    TMP DP  RH WIND       PRES   REMARKS
EDMONTON       MOCLDY    41  27  56 SW8       29.34F
CALGARY        PTCLDY    39  28  65 E5        29.56R
LETHBRIDGE     CLOUDY    37  27  65 SW23      29.69F WCI  26
MEDICINE HAT   CLEAR     39  25  56 SW25G35   29.62F WCI  28
WATERTON GATE    N/A     37  18  44 SW48G64     N/A  WCI  22
CARDSTON         N/A     46  27  46 W15G28      N/A
MILK RIVER       N/A     39  27  60 S10         N/A
$$

REGIONAL REPORTS...SASKATCHEWAN

CITY           SKY/WX    TMP DP  RH WIND       PRES   REMARKS
SWIFT CURRENT  CLEAR     28  21  74 SW23      29.62F WCI  14
REGINA         MOCLDY    16  10  79 SE10      29.75F WCI   3
SASKATOON      CLEAR     25  16  68 S17       29.56F WCI  11
CYPRESS HILLS    N/A     32  18  55 SW10        N/A  WCI  24
VAL MARIE        N/A     10   7  85 SW6         N/A  WCI   1
ROCKGLEN         N/A     23  14  68 SW21        N/A  WCI   8
ASSINIBOIA       N/A     36  30  80 SW7         N/A  WCI  30
$$



USA.gov is the U.S. government's official web portal to all federal, state and local government web resources and services.